Wind_Speed
20 21 22 23 25 26 28 30 33 36 40 42 43 45 47 48 47 46 48 48 51 51 51 49 51 56 61 68 71 69 73 73 66 64 60 53 53 48 49 52 55 53 50 42 38
22 22 22 25 27 28 30 34 37 40 45 46 48 48 48 46 45 46 48 50 51 50 48 45 46 45 47 55 72 74 76 73 69 67 66 60 57 53 49 53 55 58 54 47 43
24 23 24 27 29 30 33 38 42 46 49 49 52 50 48 48 48 50 51 49 46 45 44 43 44 43 45 45 52 70 77 72 72 71 70 64 61 59 54 53 56 56 54 50 47
24 25 26 28 29 31 37 42 46 49 51 52 51 49 50 51 51 52 48 43 40 39 39 41 43 46 47 46 48 51 66 73 75 75 70 68 65 65 59 52 56 59 57 55 52
27 27 28 29 30 35 40 44 49 51 52 52 50 49 52 53 52 49 45 40 37 37 36 39 42 45 47 49 51 50 47 67 74 73 68 71 69 68 62 58 58 61 60 54 53
30 30 31 32 34 39 43 48 50 51 52 52 50 52 53 54 49 45 41 37 35 34 37 38 38 39 43 45 49 52 55 55 67 71 69 70 72 74 67 60 58 55 62 58 54
33 34 34 34 36 40 46 50 51 52 52 52 53 55 54 50 45 41 36 35 33 34 36 35 38 42 44 44 45 50 55 57 57 65 67 70 76 72 66 62 60 58 60 62 56
37 37 35 35 38 44 47 50 51 52 53 54 54 54 52 46 41 36 33 33 33 35 40 41 43 46 49 49 50 50 53 58 53 60 62 68 69 70 68 66 62 59 58 61 59
41 39 37 37 41 45 49 51 50 53 55 55 56 52 48 42 37 34 31 31 34 38 41 45 49 48 50 52 54 56 54 55 55 52 60 64 67 76 70 66 62 60 60 60 61
43 42 37 38 44 48 51 53 51 51 56 57 56 51 44 40 34 30 30 32 37 41 44 48 49 48 48 53 58 55 55 54 57 55 58 59 69 75 72 67 62 60 61 60 60
44 40 37 42 46 50 53 54 56 60 61 59 52 47 42 38 33 28 31 33 36 38 41 30 29 26 26 34 39 45 46 50 53 55 55 61 67 74 72 65 62 60 59 60 58
43 37 41 45 49 53 53 53 56 58 60 54 51 45 38 34 29 27 29 31 31 22 23 17 9 9 14 19 23 39 33 37 47 53 56 62 68 73 70 65 62 59 59 58 57
39 39 43 47 51 52 53 55 58 61 61 50 49 42 38 31 25 25 28 28 26 14 22 18 7 5 11 8 17 27 31 32 34 48 56 62 66 74 67 64 63 61 58 56 55
39 42 46 50 52 54 54 57 60 63 63 57 48 40 34 27 20 22 25 24 21 14 18 14 9 11 6 7 13 19 23 21 30 37 54 60 59 68 62 64 62 59 56 54 53
41 44 47 50 53 54 56 59 62 64 59 55 49 38 31 25 20 20 20 20 19 13 16 18 10 3 8 11 20 28 28 18 30 37 37 51 42 56 60 63 61 58 54 53 51
42 44 47 49 50 54 58 60 64 65 57 49 44 37 30 22 18 19 16 17 18 13 16 23 2 5 7 13 24 28 22 22 25 28 32 36 46 37 59 57 57 55 52 50 51
42 45 46 49 52 56 59 62 66 69 64 54 42 34 26 18 19 13 17 13 13 10 12 17 11 14 13 14 23 12 15 21 21 26 24 32 41 21 52 53 53 54 51 48 49
42 44 45 49 53 57 59 63 69 69 65 54 40 32 24 15 9 14 14 9 11 9 12 10 7 8 12 18 17 27 18 21 19 23 23 33 41 33 51 51 51 52 51 47 46
40 43 46 50 54 58 60 66 70 70 65 57 40 29 24 17 13 13 9 9 4 9 9 7 4 2 10 17 22 15 9 19 16 24 20 34 31 43 45 47 50 50 48 44 44
39 42 45 51 56 59 61 66 71 69 62 53 42 31 23 13 8 9 4 14 6 7 10 9 5 3 10 13 20 26 15 21 21 19 18 27 31 30 39 44 47 48 48 46 45
37 43 47 52 56 59 59 67 69 67 63 53 41 30 23 15 12 11 10 7 6 7 10 9 6 5 9 9 18 27 23 24 23 29 14 22 22 34 38 40 44 44 45 45 45
36 41 48 52 57 58 61 65 68 65 59 50 41 30 23 16 13 10 13 4 4 4 4 5 6 7 7 13 19 18 18 16 9 23 21 21 24 30 36 38 40 40 41 43 43
37 39 46 50 53 57 61 65 67 62 56 47 39 31 28 23 12 10 11 9 6 1 4 6 7 7 8 9 18 29 27 28 17 26 16 12 27 31 34 36 37 38 39 40 41
37 40 45 48 53 57 59 63 61 59 52 44 38 32 27 23 19 5 6 4 4 3 6 3 6 9 10 10 14 21 23 23 21 13 17 11 24 30 32 34 35 36 36 36 37
37 39 43 46 52 57 58 61 61 57 49 41 37 35 31 20 18 4 3 6 8 4 2 3 2 5 9 14 15 16 16 20 20 16 18 12 21 28 32 34 33 34 38 37 34
37 39 42 44 49 55 57 60 58 55 51 40 35 35 33 26 13 4 6 9 7 2 1 3 13 9 9 13 14 15 16 18 21 21 19 20 20 23 30 34 35 34 33 37 38
35 36 41 42 47 52 55 56 57 54 50 40 35 32 31 25 10 5 6 9 4 6 3 2 8 8 11 10 13 13 14 14 13 14 18 16 20 22 24 29 35 36 36 33 32
Wind_Direction
340 337 335 334 331 329 329 328 330 328 328 325 320 317 313 307 306 304 300 291 283 279 277 269 259 251 242 235 236 237 235 235 233 230 229 223 225 219 219 217 225 228 225 220 217
341 335 331 331 329 326 327 330 333 333 331 326 324 318 316 312 310 304 296 290 286 283 277 264 254 249 246 241 236 236 235 234 233 229 228 222 222 221 220 217 223 228 226 222 217
340 335 330 330 329 328 329 331 333 332 332 328 327 321 320 317 311 304 299 293 286 279 269 259 252 249 246 243 241 235 234 233 233 229 227 221 218 221 220 219 218 226 228 224 219
340 335 332 332 331 331 331 333 333 332 332 330 327 324 323 318 312 307 301 295 286 276 269 263 256 252 251 249 245 242 236 234 232 229 224 221 219 218 219 216 217 219 224 222 221
333 334 332 332 332 330 331 333 334 334 334 331 329 327 324 320 314 308 301 293 283 275 272 270 264 258 255 252 248 241 239 235 233 231 225 221 217 216 216 216 218 216 223 224 223
334 329 330 330 331 331 332 333 333 336 335 333 332 330 326 320 314 307 300 293 285 280 277 271 261 256 254 251 247 241 237 238 230 230 227 220 216 218 214 217 217 216 216 222 223
337 333 329 330 332 333 334 335 334 335 336 335 335 331 325 321 315 307 301 295 291 290 285 279 270 264 260 254 245 241 238 236 233 226 226 220 215 211 214 216 216 216 213 218 221
344 339 334 334 335 336 336 337 337 336 338 337 335 331 326 322 316 308 299 295 293 289 288 285 276 267 261 255 247 241 237 232 232 224 221 220 209 212 215 217 215 214 215 214 219
347 343 338 337 337 337 338 338 339 338 339 337 336 332 328 323 317 310 306 304 301 297 292 287 278 269 259 251 246 242 238 232 229 229 221 219 207 215 216 215 213 212 214 214 216
346 344 341 341 339 337 338 338 340 343 341 339 338 333 330 324 320 313 310 310 307 301 296 286 279 269 255 248 242 241 239 233 229 228 220 214 210 213 216 211 212 212 211 214 214
345 343 343 342 340 339 340 340 341 342 343 343 339 333 330 326 321 317 319 319 316 310 304 297 289 272 251 235 238 229 229 230 228 220 216 211 209 213 214 211 210 212 210 213 213
346 347 345 343 341 341 343 344 343 343 346 343 340 333 331 326 320 323 328 330 325 330 347 326 323 278 220 203 215 218 223 222 222 217 213 209 208 210 210 209 208 211 210 209 213
348 345 343 343 344 342 344 345 345 344 348 345 341 333 333 327 323 331 339 336 330 329 347 351 298 341 223 230 221 217 213 221 218 212 208 208 206 208 207 207 207 209 210 207 211
346 343 344 345 344 344 346 346 346 347 350 348 340 335 332 329 325 335 345 342 335 334 337 350 296 291 237 203 207 188 191 186 201 201 205 204 206 206 205 206 207 209 211 207 208
344 344 346 346 346 348 346 347 349 349 353 348 339 334 333 330 329 332 349 350 345 346 347 331 307 298 144 151 156 166 176 188 200 195 194 201 194 212 204 204 204 207 207 207 208
345 346 347 349 349 347 347 349 350 353 353 345 336 338 338 335 334 320 351 356 357 5 4 14 31 87 121 143 177 166 172 176 183 186 195 202 191 213 203 201 204 205 207 205 207
347 346 347 348 349 348 349 351 352 355 353 350 341 339 343 336 337 330 348 1 357 359 4 24 58 107 112 139 175 166 144 157 165 185 193 193 183 196 197 198 198 201 205 205 206
348 347 347 349 349 350 351 352 355 355 354 352 344 343 347 329 320 319 323 351 5 17 21 33 45 92 124 140 160 149 151 140 176 173 183 187 181 198 194 193 194 197 203 205 206
345 346 348 350 349 350 352 356 356 355 355 354 351 348 347 339 304 298 311 323 41 45 33 28 22 127 166 139 172 152 171 156 148 163 191 181 182 193 194 193 193 196 199 202 205
344 346 349 352 350 351 355 355 356 355 357 355 355 353 351 339 300 273 281 298 300 37 46 35 41 71 178 176 162 167 168 157 142 159 166 176 177 203 194 190 193 194 196 200 204
342 343 348 351 350 354 355 356 355 356 358 358 359 356 355 344 319 274 313 337 356 7 34 44 65 107 142 162 167 151 171 154 164 152 173 177 179 184 191 192 190 194 195 198 204
335 341 346 346 351 352 356 355 355 359 -0 0 4 1 353 346 324 293 265 0 153 9 343 51 87 125 148 157 169 158 159 160 165 161 159 163 189 182 186 191 192 195 198 198 203
334 338 343 346 348 352 355 355 355 359 1 1 6 6 357 348 0 310 277 277 150 318 314 61 94 112 126 165 170 159 174 169 166 164 156 169 179 180 183 187 193 192 194 197 202
335 338 343 346 349 354 355 356 356 360 2 360 1 4 1 345 343 319 300 65 100 14 61 7 66 136 151 176 178 161 168 173 169 165 161 155 176 183 185 188 192 191 192 198 201
336 338 342 347 349 354 354 354 356 358 2 360 356 358 357 351 330 333 248 203 169 210 38 336 309 94 175 155 169 168 179 188 183 179 158 183 180 185 186 191 195 195 190 195 198
335 337 342 345 347 350 352 353 355 357 1 2 358 354 354 349 335 320 206 197 200 186 43 352 51 137 138 160 161 169 172 181 191 185 176 180 186 186 192 193 198 199 201 199 197
331 334 339 344 345 348 351 351 353 355 359 3 359 354 354 353 354 340 201 210 149 208 257 73 48 76 106 135 168 170 174 179 172 175 180 179 192 193 196 198 199 201 205 207 210
Height
5851 5848 5845 5842 5838 5835 5831 5827 5823 5818 5814 5809 5803 5798 5791 5785 5780 5773 5767 5763 5758 5755 5752 5751 5750 5752 5756 5760 5765 5771 5772 5780 5794 5804 5813 5823 5826 5832 5836 5841 5843 5850 5856 5864 5867
5848 5845 5842 5838 5834 5830 5826 5821 5817 5811 5805 5799 5793 5786 5780 5774 5768 5761 5754 5748 5743 5739 5736 5735 5735 5737 5739 5744 5748 5753 5758 5771 5780 5789 5797 5808 5815 5822 5827 5833 5837 5841 5848 5856 5862
5846 5842 5838 5834 5830 5825 5821 5816 5809 5803 5796 5789 5782 5775 5768 5761 5754 5746 5739 5732 5727 5723 5721 5721 5723 5724 5726 5730 5734 5740 5744 5759 5761 5770 5782 5796 5803 5810 5816 5822 5831 5835 5842 5849 5855
5842 5838 5834 5829 5825 5820 5816 5810 5803 5795 5787 5780 5772 5764 5756 5748 5741 5730 5723 5718 5714 5711 5709 5708 5710 5711 5714 5717 5720 5722 5733 5738 5744 5751 5768 5781 5789 5796 5805 5817 5818 5824 5831 5838 5846
5838 5834 5829 5825 5820 5814 5809 5802 5795 5786 5778 5770 5762 5754 5745 5736 5726 5717 5710 5705 5702 5699 5698 5696 5695 5696 5700 5703 5706 5713 5721 5718 5727 5740 5754 5764 5777 5786 5795 5802 5807 5818 5825 5833 5839
5834 5829 5825 5819 5814 5808 5801 5794 5786 5778 5769 5760 5751 5742 5733 5723 5713 5704 5698 5693 5690 5688 5686 5683 5683 5684 5686 5689 5694 5700 5700 5704 5713 5725 5737 5751 5763 5766 5784 5792 5799 5810 5818 5824 5831
5829 5824 5819 5814 5808 5802 5794 5786 5777 5769 5760 5750 5741 5731 5720 5711 5701 5693 5686 5681 5678 5676 5673 5672 5670 5670 5672 5674 5679 5682 5686 5692 5699 5712 5723 5734 5742 5763 5777 5781 5788 5797 5808 5817 5823
5825 5819 5813 5808 5802 5796 5788 5779 5770 5759 5750 5740 5730 5719 5707 5698 5689 5682 5677 5671 5668 5665 5661 5658 5655 5655 5656 5660 5663 5667 5670 5675 5691 5698 5710 5718 5745 5761 5761 5767 5779 5790 5798 5808 5815
5820 5814 5808 5802 5796 5789 5781 5772 5763 5751 5742 5730 5720 5708 5697 5687 5679 5672 5667 5661 5657 5652 5648 5643 5639 5637 5638 5640 5644 5649 5659 5668 5679 5688 5699 5710 5740 5735 5743 5756 5767 5778 5789 5799 5809
5816 5809 5802 5796 5789 5781 5773 5763 5755 5746 5733 5720 5708 5698 5689 5678 5670 5664 5658 5653 5647 5639 5632 5624 5617 5614 5615 5618 5626 5635 5643 5653 5663 5676 5687 5705 5715 5723 5734 5746 5760 5769 5780 5790 5801
5812 5804 5797 5791 5783 5775 5766 5756 5745 5732 5723 5712 5701 5688 5677 5669 5662 5656 5650 5644 5637 5628 5616 5608 5602 5597 5598 5604 5610 5619 5628 5639 5651 5663 5675 5690 5702 5711 5725 5738 5749 5759 5771 5783 5794
5807 5800 5793 5786 5777 5768 5758 5748 5738 5728 5717 5703 5692 5680 5672 5663 5655 5650 5644 5637 5629 5619 5611 5603 5598 5595 5594 5597 5603 5609 5619 5630 5640 5653 5666 5675 5685 5701 5714 5729 5739 5750 5763 5776 5787
5803 5797 5789 5781 5773 5763 5752 5743 5731 5719 5710 5695 5685 5673 5665 5657 5650 5645 5639 5631 5624 5617 5611 5605 5601 5599 5598 5599 5602 5606 5616 5626 5636 5646 5658 5666 5677 5685 5708 5720 5729 5742 5757 5770 5782
5800 5792 5785 5776 5769 5756 5747 5736 5724 5710 5701 5689 5678 5668 5660 5652 5647 5641 5635 5629 5621 5616 5611 5606 5601 5599 5599 5600 5603 5610 5618 5626 5630 5640 5649 5661 5679 5690 5702 5715 5725 5739 5754 5767 5777
5797 5789 5780 5770 5762 5751 5741 5729 5717 5705 5693 5682 5669 5660 5653 5648 5643 5639 5634 5627 5619 5615 5611 5608 5602 5600 5598 5600 5603 5609 5618 5623 5628 5640 5655 5661 5673 5684 5696 5705 5720 5736 5750 5763 5773
5793 5785 5777 5768 5759 5748 5736 5725 5712 5700 5687 5676 5662 5655 5650 5644 5640 5636 5632 5627 5620 5615 5611 5608 5604 5602 5601 5602 5603 5608 5618 5624 5630 5644 5653 5658 5675 5680 5690 5710 5723 5733 5744 5756 5767
5789 5781 5772 5764 5755 5743 5731 5720 5708 5694 5682 5672 5660 5652 5646 5642 5638 5635 5631 5628 5622 5618 5614 5611 5608 5606 5606 5607 5609 5613 5619 5627 5637 5646 5655 5659 5671 5679 5694 5701 5715 5726 5737 5749 5759
5786 5778 5769 5760 5750 5739 5727 5715 5702 5689 5676 5664 5654 5647 5642 5638 5635 5633 5630 5627 5625 5620 5616 5615 5614 5614 5611 5611 5613 5619 5625 5635 5644 5648 5653 5657 5666 5675 5685 5698 5710 5720 5730 5742 5752
5782 5774 5766 5757 5747 5736 5724 5710 5699 5685 5673 5662 5652 5644 5639 5634 5632 5629 5628 5626 5623 5620 5619 5617 5616 5615 5616 5618 5619 5624 5623 5632 5636 5646 5655 5659 5666 5677 5684 5695 5705 5715 5726 5736 5746
5779 5771 5763 5753 5743 5732 5718 5709 5695 5682 5669 5657 5646 5641 5636 5631 5629 5626 5625 5623 5620 5621 5618 5619 5617 5616 5616 5619 5621 5622 5630 5639 5641 5650 5659 5660 5670 5672 5681 5691 5701 5711 5721 5732 5740
5775 5767 5758 5749 5739 5728 5718 5704 5693 5679 5667 5656 5646 5639 5634 5630 5627 5625 5623 5622 5622 5622 5622 5619 5619 5619 5618 5621 5622 5624 5630 5636 5642 5648 5657 5660 5667 5669 5679 5689 5698 5708 5717 5727 5737
5772 5765 5755 5745 5736 5725 5714 5703 5692 5677 5664 5654 5645 5638 5632 5628 5626 5624 5622 5622 5623 5623 5623 5621 5621 5620 5621 5622 5624 5628 5635 5639 5647 5650 5653 5663 5664 5670 5679 5687 5696 5705 5714 5723 5732
5768 5762 5753 5744 5735 5723 5712 5701 5688 5676 5665 5654 5647 5640 5633 5628 5627 5623 5623 5624 5624 5625 5623 5624 5623 5623 5624 5626 5627 5627 5633 5637 5641 5647 5654 5663 5662 5669 5677 5685 5693 5702 5710 5719 5727
5764 5757 5749 5740 5731 5721 5711 5700 5687 5674 5665 5654 5648 5642 5636 5628 5624 5624 5623 5624 5624 5625 5625 5625 5625 5626 5628 5629 5630 5630 5633 5638 5644 5650 5656 5659 5663 5669 5676 5683 5691 5699 5707 5714 5723
5759 5754 5746 5737 5728 5719 5708 5698 5686 5675 5665 5656 5647 5641 5636 5630 5624 5623 5624 5625 5626 5626 5627 5626 5626 5627 5627 5629 5630 5633 5637 5641 5645 5651 5656 5661 5663 5668 5675 5681 5687 5696 5704 5711 5717
5755 5749 5743 5735 5726 5717 5707 5697 5687 5675 5665 5657 5648 5640 5634 5628 5624 5622 5624 5625 5627 5628 5627 5628 5625 5626 5628 5631 5632 5634 5638 5642 5647 5651 5656 5660 5663 5667 5673 5680 5686 5692 5699 5707 5714
5752 5747 5740 5733 5723 5715 5706 5696 5685 5675 5665 5656 5648 5641 5634 5628 5623 5623 5624 5626 5626 5629 5629 5630 5629 5629 5630 5632 5635 5638 5640 5643 5648 5651 5655 5660 5663 5667 5672 5677 5684 5690 5696 5702 5708